Time,TemperatureF,DewpointF,PressureIn,WindDirection,WindDirectionDegrees,WindSpeedMPH,WindSpeedGustMPH,Humidity,HourlyPrecipIn,Conditions,Clouds,dailyrainin,SoftwareType,DateUTC
2013-01-13 00:00:00,43.6,41.7,30.13,SW,225,0.0,0.4,93,0.00,,,0.08,WUHU216HW,2013-01-13 05:00:00,
2013-01-13 00:01:00,43.6,41.7,30.12,SW,225,0.0,0.4,93,0.00,,,0.00,WUHU216HW,2013-01-13 05:01:00,
2013-01-13 00:03:00,43.6,41.7,30.12,SW,225,0.0,0.4,93,0.00,,,0.00,WUHU216HW,2013-01-13 05:03:00,
2013-01-13 00:08:00,43.6,41.7,30.12,NNW,338,0.2,0.9,93,0.00,,,0.00,WUHU216HW,2013-01-13 05:08:00,
2013-01-13 00:13:00,43.6,41.7,30.13,NNW,338,0.0,0.9,93,0.00,,,0.00,WUHU216HW,2013-01-13 05:13:00,
2013-01-13 00:18:00,43.6,41.7,30.13,SW,225,0.2,0.4,93,0.00,,,0.00,WUHU216HW,2013-01-13 05:18:00,
2013-01-13 00:23:00,43.6,41.7,30.13,WSW,248,0.0,0.4,93,0.00,,,0.00,WUHU216HW,2013-01-13 05:23:00,
2013-01-13 00:28:00,43.6,41.7,30.13,NE,45,0.0,0.4,93,0.00,,,0.00,WUHU216HW,2013-01-13 05:28:00,
2013-01-13 00:33:00,43.6,41.7,30.13,NNE,23,0.0,0.9,93,0.00,,,0.00,WUHU216HW,2013-01-13 05:33:00,
2013-01-13 00:38:00,43.6,41.7,30.13,NNE,23,0.2,0.9,93,0.00,,,0.00,WUHU216HW,2013-01-13 05:38:00,
2013-01-13 00:43:00,43.6,41.7,30.12,NE,45,0.0,1.1,93,0.00,,,0.00,WUHU216HW,2013-01-13 05:43:00,
2013-01-13 00:48:00,43.7,41.9,30.12,NNE,23,0.0,1.1,93,0.00,,,0.00,WUHU216HW,2013-01-13 05:48:00,
2013-01-13 00:53:00,43.7,41.9,30.13,West,270,0.0,0.4,93,0.00,,,0.00,WUHU216HW,2013-01-13 05:53:00,
2013-01-13 00:58:00,43.7,41.9,30.13,West,270,0.0,0.4,93,0.00,,,0.00,WUHU216HW,2013-01-13 05:58:00,
2013-01-13 01:03:00,43.7,41.9,30.13,West,270,0.0,0.0,93,0.00,,,0.00,WUHU216HW,2013-01-13 06:03:00,
2013-01-13 01:08:00,43.7,41.9,30.13,South,180,0.4,0.4,93,0.00,,,0.00,WUHU216HW,2013-01-13 06:08:00,
2013-01-13 01:13:00,43.7,41.9,30.13,SSE,158,0.0,0.7,93,0.00,,,0.00,WUHU216HW,2013-01-13 06:13:00,
2013-01-13 01:18:00,43.7,41.9,30.12,ESE,113,0.0,0.7,93,0.00,,,0.00,WUHU216HW,2013-01-13 06:18:00,
2013-01-13 01:23:00,43.7,41.9,30.13,East,90,0.4,0.4,93,0.00,,,0.00,WUHU216HW,2013-01-13 06:23:00,
2013-01-13 01:28:00,43.7,41.9,30.13,East,90,0.0,0.4,93,0.00,,,0.00,WUHU216HW,2013-01-13 06:28:00,
2013-01-13 01:33:00,43.7,41.9,30.13,East,90,0.0,0.7,93,0.00,,,0.00,WUHU216HW,2013-01-13 06:33:00,
2013-01-13 01:38:00,43.7,41.9,30.13,East,90,0.0,0.9,93,0.00,,,0.00,WUHU216HW,2013-01-13 06:38:00,
2013-01-13 01:43:00,43.7,41.9,30.13,East,90,0.0,0.9,93,0.00,,,0.00,WUHU216HW,2013-01-13 06:43:00,
2013-01-13 01:48:00,43.7,41.9,30.13,East,90,0.0,0.0,93,0.00,,,0.00,WUHU216HW,2013-01-13 06:48:00,
2013-01-13 01:53:00,43.7,41.9,30.13,East,90,0.0,0.0,93,0.00,,,0.00,WUHU216HW,2013-01-13 06:53:00,
2013-01-13 01:58:00,43.7,41.9,30.12,East,90,0.7,0.7,93,0.00,,,0.00,WUHU216HW,2013-01-13 06:58:00,
2013-01-13 02:03:00,43.7,41.9,30.12,East,90,0.4,1.3,93,0.00,,,0.00,WUHU216HW,2013-01-13 07:03:00,
2013-01-13 02:08:00,43.7,41.9,30.11,ESE,113,1.1,1.3,93,0.00,,,0.00,WUHU216HW,2013-01-13 07:08:00,
2013-01-13 02:13:00,43.7,41.9,30.12,SE,135,0.0,1.3,93,0.00,,,0.00,WUHU216HW,2013-01-13 07:13:00,
2013-01-13 02:18:00,43.7,41.9,30.12,East,90,0.4,1.1,93,0.00,,,0.00,WUHU216HW,2013-01-13 07:18:00,
2013-01-13 02:23:00,43.7,41.9,30.12,East,90,0.0,1.3,93,0.00,,,0.00,WUHU216HW,2013-01-13 07:23:00,
2013-01-13 02:28:00,43.7,41.9,30.12,East,90,1.1,1.3,93,0.00,,,0.00,WUHU216HW,2013-01-13 07:28:00,
2013-01-13 02:33:00,43.6,41.7,30.12,East,90,0.0,1.1,93,0.00,,,0.00,WUHU216HW,2013-01-13 07:33:00,
2013-01-13 02:38:00,43.7,41.9,30.12,East,90,0.9,1.1,93,0.00,,,0.00,WUHU216HW,2013-01-13 07:38:00,
2013-01-13 02:43:00,43.7,41.9,30.11,East,90,0.9,0.9,93,0.00,,,0.00,WUHU216HW,2013-01-13 07:43:00,
2013-01-13 02:48:00,43.7,41.9,30.11,East,90,0.0,1.3,93,0.00,,,0.00,WUHU216HW,2013-01-13 07:48:00,
2013-01-13 02:53:00,43.7,41.9,30.11,SE,135,0.2,1.3,93,0.00,,,0.00,WUHU216HW,2013-01-13 07:53:00,
2013-01-13 02:58:00,43.7,41.9,30.11,ENE,68,1.3,1.3,93,0.00,,,0.00,WUHU216HW,2013-01-13 07:58:00,
2013-01-13 03:03:00,43.7,41.9,30.11,SSE,158,0.0,1.3,93,0.00,,,0.00,WUHU216HW,2013-01-13 08:03:00,
2013-01-13 03:08:00,43.7,41.9,30.11,SE,135,0.4,1.1,93,0.00,,,0.00,WUHU216HW,2013-01-13 08:08:00,
2013-01-13 03:13:00,43.7,41.9,30.11,SE,135,0.4,0.7,93,0.00,,,0.00,WUHU216HW,2013-01-13 08:13:00,
2013-01-13 03:18:00,43.7,41.9,30.10,ESE,113,0.4,0.9,93,0.00,,,0.00,WUHU216HW,2013-01-13 08:18:00,
2013-01-13 03:23:00,43.6,41.7,30.10,East,90,0.7,1.1,93,0.00,,,0.00,WUHU216HW,2013-01-13 08:23:00,
2013-01-13 03:28:00,43.7,41.9,30.11,SSW,203,0.7,1.1,93,0.00,,,0.00,WUHU216HW,2013-01-13 08:28:00,
2013-01-13 03:33:00,43.6,41.7,30.11,NNE,23,0.0,1.1,93,0.00,,,0.00,WUHU216HW,2013-01-13 08:33:00,
2013-01-13 03:38:00,43.6,41.7,30.11,SW,225,0.4,1.1,93,0.00,,,0.00,WUHU216HW,2013-01-13 08:38:00,
2013-01-13 03:43:00,43.6,41.7,30.09,East,90,0.4,1.1,93,0.00,,,0.00,WUHU216HW,2013-01-13 08:43:00,
2013-01-13 03:48:00,43.6,41.7,30.11,West,270,0.4,1.6,93,0.00,,,0.00,WUHU216HW,2013-01-13 08:48:00,
2013-01-13 03:53:00,43.6,41.7,30.11,South,180,0.4,1.6,93,0.00,,,0.00,WUHU216HW,2013-01-13 08:53:00,
2013-01-13 03:58:00,43.6,41.7,30.10,SE,135,0.7,0.7,93,0.00,,,0.00,WUHU216HW,2013-01-13 08:58:00,
2013-01-13 04:03:00,43.6,41.7,30.11,West,270,0.4,1.1,93,0.00,,,0.00,WUHU216HW,2013-01-13 09:03:00,
2013-01-13 04:08:00,43.6,41.7,30.11,SSW,203,0.4,1.1,93,0.00,,,0.00,WUHU216HW,2013-01-13 09:08:00,
2013-01-13 04:13:00,43.6,41.7,30.11,SW,225,0.2,1.1,93,0.00,,,0.00,WUHU216HW,2013-01-13 09:13:00,
2013-01-13 04:18:00,43.6,41.7,30.11,SE,135,0.0,1.1,93,0.00,,,0.00,WUHU216HW,2013-01-13 09:18:00,
2013-01-13 04:23:00,43.6,41.7,30.10,NNW,338,0.4,0.9,93,0.00,,,0.00,WUHU216HW,2013-01-13 09:23:00,
2013-01-13 04:28:00,43.6,41.7,30.10,SSW,203,1.6,1.8,93,0.00,,,0.00,WUHU216HW,2013-01-13 09:28:00,
2013-01-13 04:33:00,43.6,41.7,30.10,SSE,158,0.0,1.8,93,0.00,,,0.00,WUHU216HW,2013-01-13 09:33:00,
2013-01-13 04:38:00,43.6,41.7,30.10,South,180,0.0,1.8,93,0.00,,,0.00,WUHU216HW,2013-01-13 09:38:00,
2013-01-13 04:43:00,43.6,41.7,30.11,SW,225,0.4,1.1,93,0.00,,,0.00,WUHU216HW,2013-01-13 09:43:00,
2013-01-13 04:48:00,43.6,41.7,30.10,WNW,293,0.0,1.1,93,0.00,,,0.00,WUHU216HW,2013-01-13 09:48:00,
2013-01-13 04:53:00,43.6,41.7,30.10,SSE,158,0.0,1.1,93,0.00,,,0.00,WUHU216HW,2013-01-13 09:53:00,
2013-01-13 04:58:00,43.6,41.7,30.10,SSW,203,0.0,1.1,93,0.00,,,0.00,WUHU216HW,2013-01-13 09:58:00,
2013-01-13 05:03:00,43.6,41.7,30.10,SW,225,0.0,0.4,93,0.00,,,0.00,WUHU216HW,2013-01-13 10:03:00,
2013-01-13 05:08:00,43.6,41.7,30.09,SE,135,0.0,0.4,93,0.00,,,0.00,WUHU216HW,2013-01-13 10:08:00,
2013-01-13 05:13:00,43.6,41.7,30.10,South,180,0.4,0.4,93,0.00,,,0.00,WUHU216HW,2013-01-13 10:13:00,
2013-01-13 05:18:00,43.6,41.7,30.10,SSW,203,0.0,0.7,93,0.00,,,0.00,WUHU216HW,2013-01-13 10:18:00,
2013-01-13 05:23:00,43.6,41.7,30.11,WSW,248,0.0,0.7,93,0.00,,,0.00,WUHU216HW,2013-01-13 10:23:00,
2013-01-13 05:28:00,43.6,41.7,30.10,SSE,158,0.0,0.7,93,0.00,,,0.00,WUHU216HW,2013-01-13 10:28:00,
2013-01-13 05:33:00,43.6,41.7,30.10,SSE,158,0.4,0.9,93,0.00,,,0.00,WUHU216HW,2013-01-13 10:33:00,
2013-01-13 05:38:00,43.6,41.7,30.10,ESE,113,0.4,0.9,93,0.00,,,0.00,WUHU216HW,2013-01-13 10:38:00,
2013-01-13 05:43:00,43.6,41.7,30.10,SSE,158,0.0,0.7,93,0.00,,,0.00,WUHU216HW,2013-01-13 10:43:00,
2013-01-13 05:48:00,43.6,41.7,30.10,South,180,1.1,1.1,93,0.00,,,0.00,WUHU216HW,2013-01-13 10:48:00,
2013-01-13 05:53:00,43.7,41.9,30.10,SSW,203,0.0,1.1,93,0.00,,,0.00,WUHU216HW,2013-01-13 10:53:00,
2013-01-13 05:58:00,43.7,41.9,30.10,SSE,158,0.4,1.1,93,0.00,,,0.00,WUHU216HW,2013-01-13 10:58:00,
2013-01-13 06:03:00,43.7,41.9,30.10,South,180,0.0,1.1,93,0.00,,,0.00,WUHU216HW,2013-01-13 11:03:00,
2013-01-13 06:08:00,43.7,41.9,30.10,South,180,1.1,1.8,93,0.00,,,0.00,WUHU216HW,2013-01-13 11:08:00,
2013-01-13 06:13:00,43.7,41.9,30.10,SSE,158,0.2,1.8,93,0.00,,,0.00,WUHU216HW,2013-01-13 11:13:00,
2013-01-13 06:18:00,43.7,41.9,30.11,SSE,158,0.2,1.8,93,0.00,,,0.00,WUHU216HW,2013-01-13 11:18:00,
2013-01-13 06:23:00,43.7,41.9,30.10,WSW,248,2.0,2.0,93,0.00,,,0.00,WUHU216HW,2013-01-13 11:23:00,
2013-01-13 06:28:00,43.6,41.7,30.11,SE,135,1.1,2.0,93,0.00,,,0.00,WUHU216HW,2013-01-13 11:28:00,
2013-01-13 06:33:00,43.6,41.7,30.11,SSE,158,0.4,2.0,93,0.00,,,0.00,WUHU216HW,2013-01-13 11:33:00,
2013-01-13 06:38:00,43.6,41.7,30.10,ESE,113,0.4,2.0,93,0.00,,,0.00,WUHU216HW,2013-01-13 11:38:00,
2013-01-13 06:43:00,43.6,41.7,30.10,SSE,158,0.9,1.3,93,0.00,,,0.00,WUHU216HW,2013-01-13 11:43:00,
2013-01-13 06:48:00,43.7,41.9,30.10,SSW,203,0.0,1.8,93,0.00,,,0.00,WUHU216HW,2013-01-13 11:48:00,
2013-01-13 06:53:00,43.6,41.7,30.11,SSW,203,0.4,1.8,93,0.00,,,0.00,WUHU216HW,2013-01-13 11:53:00,
2013-01-13 06:58:00,43.6,41.7,30.10,SSW,203,0.0,1.6,93,0.00,,,0.00,WUHU216HW,2013-01-13 11:58:00,
2013-01-13 07:03:00,43.7,41.9,30.11,SSW,203,0.0,0.9,93,0.00,,,0.00,WUHU216HW,2013-01-13 12:03:00,
2013-01-13 07:08:00,43.7,41.9,30.10,SE,135,0.4,1.1,93,0.00,,,0.00,WUHU216HW,2013-01-13 12:08:00,
2013-01-13 07:13:00,43.7,42.1,30.10,SSE,158,0.4,1.3,94,0.00,,,0.00,WUHU216HW,2013-01-13 12:13:00,
2013-01-13 07:18:00,43.7,42.1,30.10,SE,135,0.7,1.8,94,0.00,,,0.00,WUHU216HW,2013-01-13 12:18:00,
2013-01-13 07:23:00,43.7,41.9,30.10,SSE,158,1.1,2.2,93,0.00,,,0.00,WUHU216HW,2013-01-13 12:23:00,
2013-01-13 07:28:00,43.7,42.1,30.10,South,180,0.4,2.2,94,0.00,,,0.00,WUHU216HW,2013-01-13 12:28:00,
2013-01-13 07:33:00,43.7,42.1,30.10,West,270,0.9,2.0,94,0.00,,,0.00,WUHU216HW,2013-01-13 12:33:00,
2013-01-13 07:38:00,43.9,42.3,30.10,SSW,203,0.2,1.8,94,0.00,,,0.00,WUHU216HW,2013-01-13 12:38:00,
2013-01-13 07:43:00,43.9,42.3,30.10,SSW,203,1.8,2.5,94,0.00,,,0.00,WUHU216HW,2013-01-13 12:43:00,
2013-01-13 07:48:00,43.9,42.3,30.11,SSW,203,0.4,2.9,94,0.00,,,0.00,WUHU216HW,2013-01-13 12:48:00,
2013-01-13 07:53:00,43.9,42.3,30.11,WSW,248,1.6,2.9,94,0.00,,,0.00,WUHU216HW,2013-01-13 12:53:00,
2013-01-13 07:58:00,43.9,42.3,30.12,SSE,158,0.7,1.6,94,0.00,,,0.00,WUHU216HW,2013-01-13 12:58:00,
2013-01-13 08:03:00,43.9,42.3,30.11,South,180,0.4,2.7,94,0.00,,,0.00,WUHU216HW,2013-01-13 13:03:00,
2013-01-13 08:08:00,43.9,42.3,30.12,SSW,203,0.0,2.7,94,0.00,,,0.00,WUHU216HW,2013-01-13 13:08:00,
2013-01-13 08:13:00,43.9,42.3,30.13,SSE,158,0.2,2.0,94,0.00,,,0.00,WUHU216HW,2013-01-13 13:13:00,
2013-01-13 08:18:00,43.9,42.3,30.13,SSW,203,1.6,1.8,94,0.00,,,0.00,WUHU216HW,2013-01-13 13:18:00,
2013-01-13 08:23:00,43.9,42.3,30.12,ESE,113,0.4,1.8,94,0.00,,,0.00,WUHU216HW,2013-01-13 13:23:00,
2013-01-13 08:28:00,43.9,42.3,30.13,SE,135,0.4,1.6,94,0.00,,,0.00,WUHU216HW,2013-01-13 13:28:00,
2013-01-13 08:33:00,44.1,42.5,30.13,SE,135,0.2,2.5,94,0.00,,,0.00,WUHU216HW,2013-01-13 13:33:00,
2013-01-13 08:38:00,43.9,42.3,30.13,SE,135,0.4,2.7,94,0.00,,,0.00,WUHU216HW,2013-01-13 13:38:00,
2013-01-13 08:43:00,43.9,42.3,30.13,SSW,203,0.2,2.7,94,0.00,,,0.00,WUHU216HW,2013-01-13 13:43:00,
2013-01-13 08:48:00,44.1,42.5,30.12,South,180,1.8,2.7,94,0.00,,,0.00,WUHU216HW,2013-01-13 13:48:00,
2013-01-13 08:53:00,44.1,42.5,30.12,ENE,68,0.4,2.7,94,0.00,,,0.00,WUHU216HW,2013-01-13 13:53:00,
2013-01-13 08:58:00,44.1,42.5,30.12,ENE,68,1.1,2.5,94,0.00,,,0.00,WUHU216HW,2013-01-13 13:58:00,
2013-01-13 09:03:00,44.1,42.5,30.13,South,180,1.1,2.5,94,0.00,,,0.00,WUHU216HW,2013-01-13 14:03:00,
2013-01-13 09:08:00,44.1,42.5,30.13,East,90,0.9,2.5,94,0.00,,,0.00,WUHU216HW,2013-01-13 14:08:00,
2013-01-13 09:13:00,44.1,42.5,30.13,South,180,1.8,3.1,94,0.00,,,0.00,WUHU216HW,2013-01-13 14:13:00,
2013-01-13 09:18:00,44.1,42.5,30.14,South,180,0.4,3.1,94,0.00,,,0.00,WUHU216HW,2013-01-13 14:18:00,
2013-01-13 09:23:00,44.3,42.7,30.13,WSW,248,0.4,2.0,94,0.00,,,0.00,WUHU216HW,2013-01-13 14:23:00,
2013-01-13 09:28:00,44.3,42.7,30.14,South,180,0.0,0.9,94,0.00,,,0.00,WUHU216HW,2013-01-13 14:28:00,
2013-01-13 09:33:00,44.5,42.8,30.14,South,180,0.7,1.3,94,0.00,,,0.00,WUHU216HW,2013-01-13 14:33:00,
2013-01-13 09:38:00,44.3,42.7,30.14,SSE,158,0.9,2.5,94,0.00,,,0.00,WUHU216HW,2013-01-13 14:38:00,
2013-01-13 09:43:00,44.5,42.8,30.14,South,180,0.4,2.9,94,0.00,,,0.00,WUHU216HW,2013-01-13 14:43:00,
2013-01-13 09:48:00,44.5,42.8,30.14,WSW,248,0.4,2.9,94,0.00,,,0.00,WUHU216HW,2013-01-13 14:48:00,
2013-01-13 09:53:00,44.6,43.0,30.14,SSW,203,0.4,2.9,94,0.00,,,0.00,WUHU216HW,2013-01-13 14:53:00,
2013-01-13 09:58:00,44.6,43.0,30.14,SSW,203,1.1,2.9,94,0.00,,,0.00,WUHU216HW,2013-01-13 14:58:00,
2013-01-13 10:03:00,45.0,43.4,30.14,SSE,158,3.1,3.1,94,0.00,,,0.00,WUHU216HW,2013-01-13 15:03:00,
2013-01-13 10:08:00,45.0,43.4,30.14,South,180,1.1,4.0,94,0.00,,,0.00,WUHU216HW,2013-01-13 15:08:00,
2013-01-13 10:13:00,45.4,43.7,30.14,ESE,113,1.1,4.0,94,0.00,,,0.00,WUHU216HW,2013-01-13 15:13:00,
2013-01-13 10:18:00,45.4,43.7,30.14,South,180,0.0,3.4,94,0.00,,,0.00,WUHU216HW,2013-01-13 15:18:00,
2013-01-13 10:23:00,45.4,43.7,30.13,South,180,0.0,2.2,94,0.00,,,0.00,WUHU216HW,2013-01-13 15:23:00,
2013-01-13 10:28:00,45.4,43.7,30.13,SSW,203,1.6,2.2,94,0.00,,,0.00,WUHU216HW,2013-01-13 15:28:00,
2013-01-13 10:33:00,45.5,43.9,30.14,South,180,0.9,1.8,94,0.00,,,0.00,WUHU216HW,2013-01-13 15:33:00,
2013-01-13 10:38:00,45.5,43.9,30.13,SE,135,0.4,2.0,94,0.00,,,0.00,WUHU216HW,2013-01-13 15:38:00,
2013-01-13 10:43:00,45.7,44.1,30.13,SSW,203,2.9,2.9,94,0.00,,,0.00,WUHU216HW,2013-01-13 15:43:00,
2013-01-13 10:48:00,45.7,44.1,30.13,SSW,203,0.4,2.9,94,0.00,,,0.00,WUHU216HW,2013-01-13 15:48:00,
2013-01-13 10:53:00,45.7,44.1,30.13,NE,45,0.2,2.9,94,0.00,,,0.00,WUHU216HW,2013-01-13 15:53:00,
2013-01-13 10:58:00,45.7,44.1,30.14,South,180,1.6,2.2,94,0.00,,,0.00,WUHU216HW,2013-01-13 15:58:00,
2013-01-13 11:03:00,45.7,44.1,30.13,SW,225,1.1,2.7,94,0.00,,,0.00,WUHU216HW,2013-01-13 16:03:00,
2013-01-13 11:08:00,45.7,44.1,30.13,SSW,203,1.3,2.7,94,0.00,,,0.00,WUHU216HW,2013-01-13 16:08:00,
2013-01-13 11:13:00,45.7,44.1,30.13,SSE,158,0.4,2.2,94,0.00,,,0.00,WUHU216HW,2013-01-13 16:13:00,
2013-01-13 11:18:00,45.9,44.6,30.12,SSW,203,0.9,2.2,95,0.00,,,0.00,WUHU216HW,2013-01-13 16:18:00,
2013-01-13 11:23:00,46.1,44.5,30.12,SSW,203,0.4,1.6,94,0.00,,,0.00,WUHU216HW,2013-01-13 16:23:00,
2013-01-13 11:28:00,46.1,44.7,30.13,SSE,158,1.6,1.6,95,0.00,,,0.00,WUHU216HW,2013-01-13 16:28:00,
2013-01-13 11:33:00,46.1,44.5,30.12,SSW,203,0.4,2.5,94,0.00,,,0.00,WUHU216HW,2013-01-13 16:33:00,
2013-01-13 11:38:00,45.9,44.6,30.11,SE,135,0.7,3.6,95,0.00,,,0.00,WUHU216HW,2013-01-13 16:38:00,
2013-01-13 11:43:00,46.1,44.5,30.11,SSE,158,0.4,3.6,94,0.00,,,0.00,WUHU216HW,2013-01-13 16:43:00,
2013-01-13 11:48:00,46.1,44.7,30.10,ESE,113,1.1,2.7,95,0.00,,,0.00,WUHU216HW,2013-01-13 16:48:00,
2013-01-13 11:53:00,46.3,44.9,30.11,SSE,158,1.1,2.7,95,0.00,,,0.00,WUHU216HW,2013-01-13 16:53:00,
2013-01-13 11:58:00,46.4,44.8,30.10,SSW,203,0.4,2.7,94,0.00,,,0.00,WUHU216HW,2013-01-13 16:58:00,
2013-01-13 12:03:00,46.4,44.8,30.10,SW,225,1.1,1.8,94,0.00,,,0.00,WUHU216HW,2013-01-13 17:03:00,
2013-01-13 12:08:00,46.6,45.0,30.11,SSW,203,0.9,1.6,94,0.00,,,0.00,WUHU216HW,2013-01-13 17:08:00,
2013-01-13 12:13:00,46.6,45.0,30.10,South,180,2.2,2.7,94,0.00,,,0.00,WUHU216HW,2013-01-13 17:13:00,
2013-01-13 12:18:00,46.6,45.0,30.10,SSW,203,0.2,2.7,94,0.00,,,0.00,WUHU216HW,2013-01-13 17:18:00,
2013-01-13 12:23:00,46.6,45.0,30.10,SSW,203,1.1,2.7,94,0.00,,,0.00,WUHU216HW,2013-01-13 17:23:00,
2013-01-13 12:28:00,46.8,45.2,30.10,South,180,1.6,2.7,94,0.00,,,0.00,WUHU216HW,2013-01-13 17:28:00,
2013-01-13 12:33:00,46.8,45.2,30.09,South,180,1.1,2.2,94,0.00,,,0.00,WUHU216HW,2013-01-13 17:33:00,
2013-01-13 12:38:00,47.0,45.4,30.09,SW,225,3.1,3.4,94,0.00,,,0.00,WUHU216HW,2013-01-13 17:38:00,
2013-01-13 12:43:00,47.0,45.4,30.09,SW,225,1.1,3.4,94,0.00,,,0.00,WUHU216HW,2013-01-13 17:43:00,
2013-01-13 12:48:00,47.0,45.4,30.09,South,180,0.9,3.1,94,0.00,,,0.00,WUHU216HW,2013-01-13 17:48:00,
2013-01-13 12:53:00,47.0,45.4,30.09,SSE,158,2.9,3.1,94,0.00,,,0.00,WUHU216HW,2013-01-13 17:53:00,
2013-01-13 12:58:00,47.0,45.4,30.08,SSE,158,0.9,2.9,94,0.00,,,0.00,WUHU216HW,2013-01-13 17:58:00,
2013-01-13 13:03:00,47.0,45.1,30.08,South,180,0.4,2.9,93,0.00,,,0.00,WUHU216HW,2013-01-13 18:03:00,
2013-01-13 13:08:00,47.0,45.1,30.08,SW,225,0.4,1.6,93,0.00,,,0.00,WUHU216HW,2013-01-13 18:08:00,
2013-01-13 13:13:00,46.8,44.9,30.08,SSW,203,0.0,1.3,93,0.00,,,0.00,WUHU216HW,2013-01-13 18:13:00,
2013-01-13 13:18:00,47.0,45.1,30.08,SSE,158,0.4,1.3,93,0.00,,,0.00,WUHU216HW,2013-01-13 18:18:00,
2013-01-13 13:23:00,46.8,44.9,30.08,SSE,158,0.0,1.3,93,0.00,,,0.00,WUHU216HW,2013-01-13 18:23:00,
2013-01-13 13:28:00,47.0,45.1,30.08,South,180,0.0,1.6,93,0.00,,,0.00,WUHU216HW,2013-01-13 18:28:00,
2013-01-13 13:33:00,46.8,44.9,30.07,South,180,2.2,2.2,93,0.00,,,0.00,WUHU216HW,2013-01-13 18:33:00,
2013-01-13 13:38:00,47.0,45.1,30.06,ENE,68,0.7,2.2,93,0.00,,,0.00,WUHU216HW,2013-01-13 18:38:00,
2013-01-13 13:43:00,47.2,45.3,30.06,East,90,2.5,2.5,93,0.00,,,0.00,WUHU216HW,2013-01-13 18:43:00,
2013-01-13 13:48:00,47.2,45.3,30.06,SW,225,1.1,2.5,93,0.00,,,0.00,WUHU216HW,2013-01-13 18:48:00,
2013-01-13 13:53:00,47.3,45.5,30.05,SSE,158,0.4,3.6,93,0.00,,,0.00,WUHU216HW,2013-01-13 18:53:00,
2013-01-13 13:58:00,47.3,45.5,30.05,East,90,2.5,3.6,93,0.00,,,0.00,WUHU216HW,2013-01-13 18:58:00,
2013-01-13 14:03:00,47.5,45.6,30.05,SW,225,0.4,2.5,93,0.00,,,0.00,WUHU216HW,2013-01-13 19:03:00,
2013-01-13 14:08:00,47.5,45.6,30.06,WSW,248,0.9,2.5,93,0.00,,,0.00,WUHU216HW,2013-01-13 19:08:00,
2013-01-13 14:13:00,47.5,45.6,30.06,SE,135,0.9,2.9,93,0.00,,,0.00,WUHU216HW,2013-01-13 19:13:00,
2013-01-13 14:18:00,47.5,45.4,30.05,East,90,0.4,4.0,92,0.00,,,0.00,WUHU216HW,2013-01-13 19:18:00,
2013-01-13 14:23:00,47.5,45.4,30.05,South,180,0.9,4.0,92,0.00,,,0.00,WUHU216HW,2013-01-13 19:23:00,
2013-01-13 14:28:00,47.5,45.4,30.05,SW,225,1.3,1.8,92,0.00,,,0.00,WUHU216HW,2013-01-13 19:28:00,
2013-01-13 14:33:00,47.5,45.4,30.05,SSW,203,2.0,2.5,92,0.00,,,0.00,WUHU216HW,2013-01-13 19:33:00,
2013-01-13 14:38:00,47.5,45.4,30.05,SE,135,1.1,3.1,92,0.00,,,0.00,WUHU216HW,2013-01-13 19:38:00,
2013-01-13 14:43:00,47.5,45.4,30.06,SW,225,0.4,3.8,92,0.00,,,0.00,WUHU216HW,2013-01-13 19:43:00,
2013-01-13 14:48:00,47.5,45.4,30.06,South,180,1.3,3.8,92,0.00,,,0.00,WUHU216HW,2013-01-13 19:48:00,
2013-01-13 14:53:00,47.5,45.4,30.06,SSW,203,0.4,2.5,92,0.00,,,0.00,WUHU216HW,2013-01-13 19:53:00,
2013-01-13 14:58:00,47.5,45.4,30.06,SSW,203,0.7,2.5,92,0.00,,,0.00,WUHU216HW,2013-01-13 19:58:00,
2013-01-13 15:03:00,47.5,45.4,30.07,South,180,0.7,2.0,92,0.00,,,0.00,WUHU216HW,2013-01-13 20:03:00,
2013-01-13 15:08:00,47.5,45.4,30.07,SW,225,1.6,3.4,92,0.00,,,0.00,WUHU216HW,2013-01-13 20:08:00,
2013-01-13 15:13:00,47.5,45.4,30.07,ESE,113,0.7,3.4,92,0.00,,,0.00,WUHU216HW,2013-01-13 20:13:00,
2013-01-13 15:18:00,47.5,45.4,30.06,SSE,158,0.2,2.2,92,0.00,,,0.00,WUHU216HW,2013-01-13 20:18:00,
2013-01-13 15:23:00,47.3,45.2,30.07,SSE,158,1.1,2.2,92,0.00,,,0.00,WUHU216HW,2013-01-13 20:23:00,
2013-01-13 15:28:00,47.5,45.4,30.06,SE,135,0.9,3.1,92,0.00,,,0.00,WUHU216HW,2013-01-13 20:28:00,
2013-01-13 15:33:00,47.5,45.4,30.06,SSE,158,0.2,3.4,92,0.00,,,0.00,WUHU216HW,2013-01-13 20:33:00,
2013-01-13 15:38:00,47.5,45.4,30.05,South,180,1.1,3.4,92,0.00,,,0.00,WUHU216HW,2013-01-13 20:38:00,
2013-01-13 15:43:00,47.5,45.4,30.06,SSW,203,1.1,2.5,92,0.00,,,0.00,WUHU216HW,2013-01-13 20:43:00,
2013-01-13 15:48:00,47.5,45.4,30.06,West,270,2.9,2.9,92,0.00,,,0.00,WUHU216HW,2013-01-13 20:48:00,
2013-01-13 15:53:00,47.5,45.4,30.05,SSE,158,0.4,3.4,92,0.00,,,0.00,WUHU216HW,2013-01-13 20:53:00,
2013-01-13 15:58:00,47.5,45.4,30.05,South,180,1.1,3.4,92,0.00,,,0.00,WUHU216HW,2013-01-13 20:58:00,
2013-01-13 16:03:00,47.5,45.4,30.05,SSE,158,0.9,3.4,92,0.00,,,0.00,WUHU216HW,2013-01-13 21:03:00,
2013-01-13 16:08:00,47.5,45.4,30.05,SSW,203,0.9,2.9,92,0.00,,,0.00,WUHU216HW,2013-01-13 21:08:00,
2013-01-13 16:13:00,47.5,45.4,30.05,SW,225,1.1,2.5,92,0.00,,,0.00,WUHU216HW,2013-01-13 21:13:00,
2013-01-13 16:18:00,47.5,45.4,30.05,SSW,203,2.5,2.5,92,0.00,,,0.00,WUHU216HW,2013-01-13 21:18:00,
2013-01-13 16:23:00,47.5,45.1,30.04,SSW,203,4.3,4.3,91,0.00,,,0.00,WUHU216HW,2013-01-13 21:23:00,
2013-01-13 16:28:00,47.5,45.4,30.04,SSW,203,2.5,4.3,92,0.00,,,0.00,WUHU216HW,2013-01-13 21:28:00,
2013-01-13 16:33:00,47.5,45.4,30.04,SSW,203,1.1,4.3,92,0.00,,,0.00,WUHU216HW,2013-01-13 21:33:00,
2013-01-13 16:38:00,47.5,45.4,30.05,SSE,158,2.5,4.9,92,0.00,,,0.00,WUHU216HW,2013-01-13 21:38:00,
2013-01-13 16:43:00,47.5,45.4,30.04,SSW,203,1.8,4.9,92,0.00,,,0.00,WUHU216HW,2013-01-13 21:43:00,
2013-01-13 16:48:00,47.5,45.4,30.04,South,180,0.7,3.4,92,0.00,,,0.00,WUHU216HW,2013-01-13 21:48:00,
2013-01-13 16:53:00,47.5,45.4,30.04,SSE,158,1.1,3.1,92,0.00,,,0.00,WUHU216HW,2013-01-13 21:53:00,
2013-01-13 16:58:00,47.5,45.4,30.04,South,180,3.4,3.6,92,0.00,,,0.00,WUHU216HW,2013-01-13 21:58:00,
2013-01-13 17:03:00,47.5,45.4,30.04,ESE,113,1.1,3.6,92,0.00,,,0.00,WUHU216HW,2013-01-13 22:03:00,
2013-01-13 17:08:00,47.5,45.4,30.03,SE,135,4.5,4.5,92,0.00,,,0.00,WUHU216HW,2013-01-13 22:08:00,
2013-01-13 17:13:00,47.5,45.4,30.04,SSE,158,2.0,4.5,92,0.00,,,0.00,WUHU216HW,2013-01-13 22:13:00,
2013-01-13 17:18:00,47.3,45.2,30.03,SSE,158,1.8,4.5,92,0.00,,,0.00,WUHU216HW,2013-01-13 22:18:00,
2013-01-13 17:23:00,47.3,45.2,30.04,SSW,203,0.4,4.5,92,0.00,,,0.00,WUHU216HW,2013-01-13 22:23:00,
2013-01-13 17:28:00,47.5,45.4,30.05,South,180,2.5,3.8,92,0.00,,,0.00,WUHU216HW,2013-01-13 22:28:00,
2013-01-13 17:33:00,47.5,45.4,30.05,SE,135,2.0,3.8,92,0.00,,,0.00,WUHU216HW,2013-01-13 22:33:00,
2013-01-13 17:38:00,47.5,45.4,30.03,SSE,158,1.3,4.0,92,0.00,,,0.00,WUHU216HW,2013-01-13 22:38:00,
2013-01-13 17:43:00,47.5,45.4,30.05,SW,225,0.9,4.0,92,0.00,,,0.00,WUHU216HW,2013-01-13 22:43:00,
2013-01-13 17:48:00,47.5,45.4,30.03,SW,225,2.0,5.4,92,0.00,,,0.00,WUHU216HW,2013-01-13 22:48:00,
2013-01-13 17:53:00,47.5,45.6,30.03,South,180,2.9,5.4,93,0.00,,,0.00,WUHU216HW,2013-01-13 22:53:00,
2013-01-13 17:58:00,47.5,45.6,30.03,SSW,203,3.4,4.7,93,0.00,,,0.00,WUHU216HW,2013-01-13 22:58:00,
2013-01-13 18:03:00,47.3,45.5,30.04,SW,225,2.0,4.7,93,0.00,,,0.00,WUHU216HW,2013-01-13 23:03:00,
2013-01-13 18:08:00,47.3,45.5,30.04,SSW,203,1.3,4.7,93,0.00,,,0.00,WUHU216HW,2013-01-13 23:08:00,
2013-01-13 18:13:00,47.3,45.5,30.04,SSW,203,1.1,3.8,93,0.00,,,0.00,WUHU216HW,2013-01-13 23:13:00,
2013-01-13 18:18:00,47.3,45.5,30.02,SSW,203,1.3,3.4,93,0.00,,,0.00,WUHU216HW,2013-01-13 23:18:00,
2013-01-13 18:23:00,47.3,45.7,30.01,SSE,158,2.9,6.3,94,0.00,,,0.00,WUHU216HW,2013-01-13 23:23:00,
2013-01-13 18:28:00,47.3,45.7,30.01,SSE,158,1.8,6.3,94,0.00,,,0.00,WUHU216HW,2013-01-13 23:28:00,
2013-01-13 18:33:00,47.5,45.9,30.03,South,180,2.7,5.4,94,0.00,,,0.00,WUHU216HW,2013-01-13 23:33:00,
2013-01-13 18:38:00,47.5,45.9,30.03,SSW,203,1.1,4.0,94,0.00,,,0.00,WUHU216HW,2013-01-13 23:38:00,
2013-01-13 18:43:00,47.5,45.9,30.01,SSE,158,1.8,2.7,94,0.00,,,0.00,WUHU216HW,2013-01-13 23:43:00,
2013-01-13 18:48:00,47.5,45.9,30.02,SSW,203,1.1,2.0,94,0.00,,,0.00,WUHU216HW,2013-01-13 23:48:00,
2013-01-13 18:53:00,47.3,45.7,30.02,SSW,203,0.0,3.6,94,0.00,,,0.00,WUHU216HW,2013-01-13 23:53:00,
2013-01-13 18:58:00,47.5,45.9,30.02,SSW,203,0.4,4.0,94,0.00,,,0.00,WUHU216HW,2013-01-13 23:58:00,
2013-01-13 19:03:00,47.5,45.9,30.02,SSW,203,0.9,4.0,94,0.00,,,0.00,WUHU216HW,2013-01-14 00:03:00,
2013-01-13 19:08:00,47.5,45.9,30.03,SW,225,1.1,3.4,94,0.00,,,0.00,WUHU216HW,2013-01-14 00:08:00,
2013-01-13 19:13:00,47.5,45.9,30.03,SSW,203,1.1,3.4,94,0.00,,,0.00,WUHU216HW,2013-01-14 00:13:00,
2013-01-13 19:18:00,47.5,45.9,30.02,SSW,203,1.1,1.8,94,0.00,,,0.00,WUHU216HW,2013-01-14 00:18:00,
2013-01-13 19:23:00,47.5,45.9,30.02,SSE,158,1.6,1.8,94,0.00,,,0.00,WUHU216HW,2013-01-14 00:23:00,
2013-01-13 19:28:00,47.5,45.9,30.03,SSW,203,0.7,1.8,94,0.00,,,0.00,WUHU216HW,2013-01-14 00:28:00,
2013-01-13 19:33:00,47.5,45.9,30.03,South,180,0.7,1.8,94,0.00,,,0.00,WUHU216HW,2013-01-14 00:33:00,
2013-01-13 19:38:00,47.5,45.9,30.03,SSW,203,0.7,1.8,94,0.00,,,0.00,WUHU216HW,2013-01-14 00:38:00,
2013-01-13 19:43:00,47.5,45.9,30.02,SSE,158,1.1,1.3,94,0.00,,,0.00,WUHU216HW,2013-01-14 00:43:00,
2013-01-13 19:48:00,47.5,45.9,30.02,SSE,158,1.1,1.6,94,0.00,,,0.00,WUHU216HW,2013-01-14 00:48:00,
2013-01-13 19:53:00,47.5,45.9,30.03,WSW,248,1.3,2.5,94,0.00,,,0.00,WUHU216HW,2013-01-14 00:53:00,
2013-01-13 19:58:00,47.5,45.9,30.03,SSW,203,0.0,3.4,94,0.00,,,0.00,WUHU216HW,2013-01-14 00:58:00,
2013-01-13 20:03:00,47.5,45.9,30.03,SSW,203,0.7,3.4,94,0.00,,,0.00,WUHU216HW,2013-01-14 01:03:00,
2013-01-13 20:08:00,47.5,45.9,30.03,South,180,0.4,1.6,94,0.00,,,0.00,WUHU216HW,2013-01-14 01:08:00,
2013-01-13 20:13:00,47.5,45.9,30.02,SSW,203,0.2,0.9,94,0.00,,,0.00,WUHU216HW,2013-01-14 01:13:00,
2013-01-13 20:18:00,47.5,45.9,30.03,SSW,203,0.4,0.9,94,0.00,,,0.00,WUHU216HW,2013-01-14 01:18:00,
2013-01-13 20:23:00,47.5,45.9,30.02,ESE,113,0.4,1.1,94,0.00,,,0.00,WUHU216HW,2013-01-14 01:23:00,
2013-01-13 20:28:00,47.5,45.9,30.02,SSW,203,1.1,1.1,94,0.00,,,0.00,WUHU216HW,2013-01-14 01:28:00,
2013-01-13 20:33:00,47.5,45.9,30.03,SE,135,0.4,1.1,94,0.00,,,0.00,WUHU216HW,2013-01-14 01:33:00,
2013-01-13 20:38:00,47.5,45.9,30.03,SSW,203,0.0,1.1,94,0.00,,,0.00,WUHU216HW,2013-01-14 01:38:00,
2013-01-13 20:43:00,47.3,45.7,30.02,South,180,0.7,0.9,94,0.00,,,0.00,WUHU216HW,2013-01-14 01:43:00,
2013-01-13 20:48:00,47.3,45.7,30.02,SSW,203,0.2,1.1,94,0.00,,,0.00,WUHU216HW,2013-01-14 01:48:00,
2013-01-13 20:53:00,47.3,45.7,30.02,SW,225,0.9,1.1,94,0.00,,,0.00,WUHU216HW,2013-01-14 01:53:00,
2013-01-13 20:58:00,47.3,45.7,30.01,SSE,158,1.1,1.1,94,0.00,,,0.00,WUHU216HW,2013-01-14 01:58:00,
2013-01-13 21:03:00,47.3,45.7,30.01,ESE,113,0.0,1.1,94,0.00,,,0.00,WUHU216HW,2013-01-14 02:03:00,
2013-01-13 21:08:00,47.3,45.7,30.02,SSW,203,0.0,1.1,94,0.00,,,0.00,WUHU216HW,2013-01-14 02:08:00,
2013-01-13 21:13:00,47.3,45.7,30.02,South,180,0.0,0.4,94,0.00,,,0.00,WUHU216HW,2013-01-14 02:13:00,
2013-01-13 21:18:00,47.3,45.7,30.01,SE,135,0.7,0.7,94,0.00,,,0.00,WUHU216HW,2013-01-14 02:18:00,
2013-01-13 21:23:00,47.3,45.7,30.01,SSE,158,0.4,0.7,94,0.00,,,0.00,WUHU216HW,2013-01-14 02:23:00,
2013-01-13 21:28:00,47.3,45.7,30.01,SE,135,0.2,1.8,94,0.00,,,0.00,WUHU216HW,2013-01-14 02:28:00,
2013-01-13 21:33:00,47.3,45.7,30.00,SSE,158,0.4,1.8,94,0.00,,,0.00,WUHU216HW,2013-01-14 02:33:00,
2013-01-13 21:38:00,47.3,45.7,30.00,South,180,0.4,0.9,94,0.00,,,0.00,WUHU216HW,2013-01-14 02:38:00,
2013-01-13 21:43:00,47.5,45.9,30.00,SE,135,0.2,0.9,94,0.00,,,0.00,WUHU216HW,2013-01-14 02:43:00,
2013-01-13 21:48:00,47.3,45.7,30.00,SE,135,0.0,0.9,94,0.00,,,0.00,WUHU216HW,2013-01-14 02:48:00,
2013-01-13 21:53:00,47.5,45.9,30.00,South,180,0.0,0.4,94,0.00,,,0.00,WUHU216HW,2013-01-14 02:53:00,
2013-01-13 21:58:00,47.5,45.9,30.00,South,180,0.2,0.7,94,0.00,,,0.00,WUHU216HW,2013-01-14 02:58:00,
2013-01-13 22:03:00,47.5,45.9,30.00,SSE,158,0.0,0.9,94,0.00,,,0.00,WUHU216HW,2013-01-14 03:03:00,
2013-01-13 22:08:00,47.5,45.9,30.00,South,180,0.0,0.9,94,0.00,,,0.00,WUHU216HW,2013-01-14 03:08:00,
2013-01-13 22:13:00,47.5,45.9,30.00,SSE,158,0.0,0.9,94,0.00,,,0.00,WUHU216HW,2013-01-14 03:13:00,
2013-01-13 22:18:00,47.5,45.9,30.00,SSE,158,0.0,0.4,94,0.00,,,0.00,WUHU216HW,2013-01-14 03:18:00,
2013-01-13 22:23:00,47.5,45.9,30.01,SE,135,0.0,0.4,94,0.00,,,0.00,WUHU216HW,2013-01-14 03:23:00,
2013-01-13 22:28:00,47.5,45.9,30.01,SSE,158,0.2,1.1,94,0.00,,,0.00,WUHU216HW,2013-01-14 03:28:00,
2013-01-13 22:33:00,47.5,45.9,30.01,SSE,158,0.0,1.1,94,0.00,,,0.00,WUHU216HW,2013-01-14 03:33:00,
2013-01-13 22:38:00,47.5,45.9,30.01,South,180,0.0,0.4,94,0.00,,,0.00,WUHU216HW,2013-01-14 03:38:00,
2013-01-13 22:43:00,47.5,45.9,30.01,South,180,0.0,0.4,94,0.00,,,0.00,WUHU216HW,2013-01-14 03:43:00,
2013-01-13 22:48:00,47.5,45.9,30.01,WSW,248,0.0,0.7,94,0.00,,,0.00,WUHU216HW,2013-01-14 03:48:00,
2013-01-13 22:53:00,47.5,45.9,30.01,SSW,203,0.0,0.7,94,0.00,,,0.00,WUHU216HW,2013-01-14 03:53:00,
2013-01-13 22:58:00,47.5,45.9,30.01,South,180,0.0,0.9,94,0.00,,,0.00,WUHU216HW,2013-01-14 03:58:00,
2013-01-13 23:03:00,47.5,45.9,30.01,South,180,0.0,0.9,94,0.00,,,0.00,WUHU216HW,2013-01-14 04:03:00,
2013-01-13 23:08:00,47.5,45.9,30.00,South,180,0.0,0.4,94,0.00,,,0.00,WUHU216HW,2013-01-14 04:08:00,
2013-01-13 23:13:00,47.5,45.9,30.01,South,180,0.0,0.4,94,0.00,,,0.00,WUHU216HW,2013-01-14 04:13:00,
2013-01-13 23:18:00,47.5,45.9,30.00,South,180,0.0,0.2,94,0.00,,,0.00,WUHU216HW,2013-01-14 04:18:00,
2013-01-13 23:23:00,47.5,45.9,30.00,SE,135,0.2,0.4,94,0.00,,,0.00,WUHU216HW,2013-01-14 04:23:00,
2013-01-13 23:28:00,47.5,45.9,30.00,South,180,0.4,0.4,94,0.00,,,0.00,WUHU216HW,2013-01-14 04:28:00,
2013-01-13 23:33:00,47.7,46.1,30.00,SSE,158,0.0,1.3,94,0.00,,,0.00,WUHU216HW,2013-01-14 04:33:00,
2013-01-13 23:38:00,47.7,46.1,30.00,South,180,0.2,1.3,94,0.00,,,0.00,WUHU216HW,2013-01-14 04:38:00,
2013-01-13 23:43:00,47.7,46.1,30.00,South,180,1.1,1.1,94,0.00,,,0.00,WUHU216HW,2013-01-14 04:43:00,
2013-01-13 23:48:00,47.7,46.1,30.00,South,180,0.0,1.3,94,0.00,,,0.00,WUHU216HW,2013-01-14 04:48:00,
2013-01-13 23:53:00,47.7,46.1,30.00,SSW,203,0.7,1.3,94,0.00,,,0.00,WUHU216HW,2013-01-14 04:53:00,
2013-01-13 23:58:00,47.7,46.1,30.00,SE,135,0.2,0.7,94,0.00,,,0.00,WUHU216HW,2013-01-14 04:58:00,